STARLINK-35073 (65385 NORAD) Tracking and Keplerian Element Data

This shows tracking and keplerian element data for the satellite.

Feedback or suggestion? Click here.




ElementValue
Catalog65385
NameSTARLINK-35073
Epoch Orbit1831
Epoch Day354.23039792
Epoch Year2025
RAAN223.214
Inclination97.6036
Eccentricity0.0002949
Argument of Perigee71.4811
Mean Anonmoly288.6737
Mean Motion15.05652104
Decay Rate2.744E-05
L11 65385U 25191G 25354.23039792 .00002744 00000+0 19431-3 0 9996
L22 65385 97.6036 223.2140 0002949 71.4811 288.6737 15.05652104 18313



Live tracking and technical data element details for STARLINK-35073 (NORAD 65385). STARLINK-35073 can be tracked NOW for your location showing map with azimuth and elevation plus other details from your city location.







IsCatalogInMostPopularTable: catalog: 65385, numindb: 10
Update: records affected: 1



GetName: 65385 STARLINK-35073

Hit Count: updated at: Tue, 21 Apr 2026 20:36:35 GMT